Location: Munkebjergskolens Observatorium
(55.3864°N, 10.3987°E)
Time: 16:08:38
(UTC+02:00)

NOAA 18 - Pass Details

Date: 29 March 2023
Orbit: 838 x 860 km, 98.9° (Epoch: 02 June)

Event Time Altitude Azimuth Distance (km) Brightness Sun altitude
Exits shadow 22:02:36 31° 113° (ESE) 1,479 5.9 -18.2°
Maximum altitude 22:04:47 46° 62° (ENE) 1,154 5.7 -18.5°
Drops below altitude 10° 22:10:04 10° 351° (N) 2,512 8.3 -19.1°
Sets 22:12:32 0° 346° (NNW) 3,452 9.2 -19.3°
